Location: Lango�lan
(48.1202°N, 3.2340°W)
Time: 09:56:03
(UTC+00:00)

USA 116 - Pass Details

Date: 23 October 2019
Orbit: 405 x 834 km, 97.9° (Epoch: 18 November)

Event Time Altitude Azimuth Distance (km) Brightness Sun altitude
Rises 05:14:16 0° 153° (SSE) 2,595 7.5 -15.6°
Reaches altitude 10° 05:16:28 10° 148° (SSE) 1,656 6.6 -15.2°
Maximum altitude 05:19:51 48° 73° (ENE) 597 4.3 -14.6°
Drops below altitude 10° 05:23:00 10° 357° (N) 1,533 6.0 -14.1°
Sets 05:24:58 0° 352° (N) 2,376 6.9 -13.8°
